Find Jindai

NORAD ID: 16910 Int'l Des: 1986-061 Owner: NASDA Country: J operational
LEOCIRCULAR

Live Position

Loading 3D Globe...

About Jindai

Description loading...

Upcoming Passes

Passes for default location (London). Set your location on the main map for personalized predictions.

Altitude History

Loading altitude history...

Two-Line Element Set

1 16910U 86061C 26110.59701509 -.00000104 00000-0 -78667-4 0 9999
2 16910 50.0043 229.8960 0072886 128.4248 245.1590 12.32655496787345
Epoch: Apr 20, 2026 • Age: 8 hours

Current Status

Altitude 1485.5 km
Velocity 7.15 km/s
Sub-Earth Point 43.12°N, 168.31°E
Launch Date Aug 12, 1986
Age 39.6 years
Type other

Technical Details

Classification Payload
Mass 294.00 kg
Dry Mass 294.00 kg
Total Mass 294.00 kg
Length 1.50 m
Diameter 1.00 m
Span 1.00 m
Shape Box
Manufacturer NAL
Bus Type NASDA Attached
Phase Status Attached in Orbit
Owner/State NASDA/J

Most Searched